| time (UTC) | temp F | wind direction | speed knots | gust knots | rain 1hr in | rain 24hr in | rain mn in | humidity % | barometer mb |
| 20260509203050 | 74 | 284 | 2.6 | 7.0 | 0.00 | 0.00 | 0.00 | 65 | 1011.5 |
| 20260509201546 | 73 | 256 | 2.6 | 7.0 | 0.00 | 0.00 | 0.00 | 67 | 1011.8 |
| 20260509200052 | 74 | 260 | 2.6 | 7.8 | 0.00 | 0.00 | 0.00 | 69 | 1011.9 |
| 20260509194556 | 73 | 207 | 2.6 | 5.2 | 0.00 | 0.00 | 0.00 | 69 | 1012.0 |
| 20260509193054 | 73 | 283 | 2.6 | 7.8 | 0.00 | 0.00 | 0.00 | 67 | 1012.1 |
| 20260509191605 | 72 | 266 | 2.6 | 8.7 | 0.00 | 0.00 | 0.00 | 69 | 1012.3 |
| 20260509190051 | 72 | 213 | 1.7 | 7.0 | 0.00 | 0.00 | 0.00 | 73 | 1012.3 |
| 20260509184601 | 72 | 215 | 1.7 | 6.1 | 0.00 | 0.00 | 0.00 | 69 | 1012.1 |
| 20260509183055 | 71 | 275 | 2.6 | 7.8 | 0.00 | 0.00 | 0.00 | 72 | 1012.1 |
| 20260509181554 | 71 | 270 | 1.7 | 7.0 | 0.00 | 0.00 | 0.00 | 74 | 1011.8 |
| 20260509180057 | 70 | 276 | 1.7 | 5.2 | 0.00 | 0.00 | 0.00 | 74 | 1011.8 |
| 20260509174551 | 69 | 194 | 2.6 | 5.2 | 0.00 | 0.00 | 0.00 | 74 | 1011.8 |
| 20260509173103 | 67 | 188 | 0.9 | 3.5 | 0.00 | 0.00 | 0.00 | 79 | 1012.0 |
| 20260509171547 | 68 | 0 | 0.0 | 5.2 | 0.00 | 0.00 | 0.00 | 78 | 1012.2 |
| 20260509170053 | 68 | 242 | 0.9 | 5.2 | 0.00 | 0.00 | 0.00 | 76 | 1012.3 |
| 20260509164543 | 67 | 251 | 0.0 | 5.2 | 0.00 | 0.00 | 0.00 | 81 | 1012.4 |
| 20260509163043 | 65 | 261 | 1.7 | 5.2 | 0.00 | 0.00 | 0.00 | 81 | 1012.5 |
| 20260509161554 | 65 | 0 | 0.9 | 5.2 | 0.00 | 0.00 | 0.00 | 82 | 1012.5 |
| 20260509160047 | 65 | 0 | 0.9 | 6.1 | 0.00 | 0.00 | 0.00 | 82 | 1012.5 |
| 20260509154549 | 64 | 0 | 0.0 | 3.5 | 0.00 | 0.00 | 0.00 | 84 | 1012.5 |
| 20260509153057 | 63 | 238 | 0.9 | 5.2 | 0.00 | 0.00 | 0.00 | 84 | 1012.4 |
| 20260509151546 | 63 | 225 | 0.0 | 3.5 | 0.00 | 0.00 | 0.00 | 84 | 1012.1 |
| 20260509150045 | 63 | 236 | 1.7 | 5.2 | 0.00 | 0.00 | 0.00 | 85 | 1012.0 |
| 20260509144550 | 62 | 229 | 0.9 | 4.3 | 0.00 | 0.00 | 0.00 | 86 | 1011.8 |
| 20260509143048 | 61 | 0 | 0.0 | 0.0 | 0.00 | 0.00 | 0.00 | 88 | 1011.8 |
| 20260509141545 | 61 | 180 | 0.0 | 4.3 | 0.00 | 0.00 | 0.00 | 88 | 1011.9 |
| 20260509140056 | 60 | 215 | 0.9 | 7.0 | 0.00 | 0.00 | 0.00 | 89 | 1011.8 |
| 20260509134546 | 60 | 200 | 0.9 | 4.3 | 0.00 | 0.00 | 0.00 | 89 | 1011.6 |
| 20260509133051 | 59 | 244 | 0.0 | 7.0 | 0.00 | 0.00 | 0.00 | 89 | 1011.7 |
| 20260509131545 | 59 | 227 | 0.9 | 7.8 | 0.00 | 0.00 | 0.00 | 89 | 1011.9 |
| 20260509130044 | 58 | 233 | 2.6 | 6.1 | 0.00 | 0.00 | 0.00 | 89 | 1012.1 |
| 20260509124547 | 57 | 236 | 1.7 | 5.2 | 0.00 | 0.00 | 0.00 | 90 | 1011.9 |
| 20260509123046 | 56 | 0 | 0.9 | 3.5 | 0.00 | 0.00 | 0.00 | 91 | 1011.7 |
| 20260509121549 | 55 | 158 | 0.0 | 4.3 | 0.00 | 0.00 | 0.00 | 90 | 1011.5 |
| 20260509120047 | 54 | 139 | 1.7 | 6.1 | 0.00 | 0.00 | 0.00 | 90 | 1011.4 |
| 20260509114543 | 53 | 147 | 1.7 | 4.3 | 0.00 | 0.00 | 0.00 | 90 | 1011.4 |
| 20260509113047 | 52 | 0 | 0.0 | 0.0 | 0.00 | 0.00 | 0.00 | 89 | 1011.4 |
| 20260509111546 | 52 | 0 | 0.0 | 0.0 | 0.00 | 0.00 | 0.00 | 89 | 1011.5 |
| 20260509110050 | 52 | 0 | 0.0 | 0.0 | 0.00 | 0.00 | 0.00 | 89 | 1011.6 |
| 20260509104546 | 53 | 0 | 0.0 | 0.0 | 0.00 | 0.00 | 0.00 | 88 | 1011.4 |
| 20260509103052 | 53 | 0 | 0.0 | 1.7 | 0.00 | 0.00 | 0.00 | 88 | 1011.4 |
| 20260509101547 | 53 | 0 | 0.0 | 0.0 | 0.00 | 0.00 | 0.00 | 88 | 1011.5 |
| 20260509100049 | 52 | 136 | 0.0 | 2.6 | 0.00 | 0.00 | 0.00 | 88 | 1011.5 |
| 20260509094557 | 52 | 0 | 0.0 | 0.0 | 0.00 | 0.00 | 0.00 | 88 | 1011.5 |
| 20260509093044 | 52 | 0 | 0.0 | 0.0 | 0.00 | 0.00 | 0.00 | 90 | 1011.8 |
| 20260509091550 | 52 | 0 | 0.0 | 0.0 | 0.00 | 0.00 | 0.00 | 88 | 1012.0 |
| 20260509090055 | 52 | 0 | 0.0 | 0.0 | 0.00 | 0.00 | 0.00 | 89 | 1011.4 |
| 20260509084559 | 52 | 0 | 0.0 | 0.0 | 0.00 | 0.00 | 0.00 | 87 | 1011.6 |
| 20260509083059 | 52 | 0 | 0.0 | 0.0 | 0.00 | 0.00 | 0.00 | 86 | 1011.3 |
| 20260509081545 | 52 | 0 | 0.0 | 1.7 | 0.00 | 0.00 | 0.00 | 86 | 1011.3 |
| 20260509080051 | 52 | 0 | 0.0 | 3.5 | 0.00 | 0.00 | 0.00 | 86 | 1011.2 |
| 20260509074606 | 52 | 134 | 0.9 | 2.6 | 0.00 | 0.00 | 0.00 | 86 | 1011.2 |
| 20260509073105 | 52 | 134 | 0.0 | 2.6 | 0.00 | 0.00 | 0.00 | 86 | 1011.3 |
| 20260509071557 | 52 | 0 | 0.0 | 3.5 | 0.00 | 0.00 | 0.00 | 85 | 1011.7 |
| 20260509070048 | 53 | 0 | 0.0 | 1.7 | 0.00 | 0.00 | 0.00 | 83 | 1011.6 |
| 20260509064550 | 54 | 0 | 0.0 | 1.7 | 0.00 | 0.00 | 0.00 | 82 | 1011.6 |
| 20260509063056 | 54 | 0 | 0.9 | 2.6 | 0.00 | 0.00 | 0.00 | 81 | 1011.6 |
| 20260509061548 | 55 | 0 | 0.0 | 3.5 | 0.00 | 0.00 | 0.00 | 80 | 1011.8 |
| 20260509060104 | 55 | 0 | 0.0 | 4.3 | 0.00 | 0.00 | 0.00 | 78 | 1012.1 |
| 20260509054545 | 56 | 0 | 0.0 | 4.3 | 0.00 | 0.00 | 0.00 | 78 | 1012.3 |
| 20260509053054 | 56 | 138 | 0.9 | 4.3 | 0.00 | 0.00 | 0.00 | 77 | 1012.3 |
| 20260509051547 | 56 | 150 | 1.7 | 4.3 | 0.00 | 0.00 | 0.00 | 76 | 1012.3 |
| 20260509050054 | 56 | 138 | 2.6 | 6.1 | 0.00 | 0.00 | 0.00 | 76 | 1012.3 |
| 20260509044547 | 56 | 138 | 1.7 | 6.1 | 0.00 | 0.00 | 0.00 | 74 | 1012.3 |
| 20260509043055 | 57 | 140 | 1.7 | 3.5 | 0.00 | 0.00 | 0.00 | 73 | 1012.4 |
| 20260509041547 | 57 | 135 | 1.7 | 6.1 | 0.00 | 0.00 | 0.00 | 72 | 1012.4 |
| 20260509040104 | 57 | 138 | 0.0 | 5.2 | 0.00 | 0.00 | 0.00 | 71 | 1012.7 |
| 20260509034547 | 58 | 0 | 0.0 | 3.5 | 0.00 | 0.00 | 0.00 | 69 | 1012.8 |
| 20260509033108 | 58 | 135 | 1.7 | 4.3 | 0.00 | 0.00 | 0.00 | 68 | 1012.8 |
| 20260509031553 | 59 | 138 | 0.9 | 2.6 | 0.00 | 0.00 | 0.00 | 66 | 1012.9 |
| 20260509030052 | 60 | 0 | 0.0 | 2.6 | 0.00 | 0.00 | 0.00 | 64 | 1012.8 |
| 20260509024556 | 60 | 136 | 0.9 | 2.6 | 0.00 | 0.00 | 0.00 | 64 | 1012.8 |
| 20260509023047 | 60 | 136 | 1.7 | 3.5 | 0.00 | 0.00 | 0.00 | 64 | 1012.9 |
| 20260509021550 | 61 | 140 | 1.7 | 6.1 | 0.00 | 0.00 | 0.00 | 62 | 1012.9 |
| 20260509020052 | 62 | 142 | 1.7 | 3.5 | 0.00 | 0.00 | 0.00 | 61 | 1012.8 |
| 20260509014550 | 62 | 150 | 1.7 | 3.5 | 0.00 | 0.00 | 0.00 | 60 | 1012.9 |
| 20260509013045 | 63 | 0 | 0.0 | 0.9 | 0.00 | 0.00 | 0.00 | 60 | 1012.7 |
| 20260509011551 | 63 | 0 | 0.0 | 0.0 | 0.00 | 0.00 | 0.00 | 58 | 1012.4 |
| 20260509010046 | 64 | 0 | 0.0 | 0.0 | 0.00 | 0.00 | 0.00 | 57 | 1012.5 |
| 20260509004543 | 65 | 0 | 0.0 | 0.9 | 0.00 | 0.00 | 0.00 | 56 | 1012.5 |
| 20260509003053 | 66 | 0 | 0.0 | 0.0 | 0.00 | 0.00 | 0.00 | 54 | 1012.6 |
| 20260509001542 | 67 | 0 | 0.0 | 1.7 | 0.00 | 0.00 | 0.00 | 53 | 1012.5 |
| 20260509000044 | 68 | 229 | 0.9 | 3.5 | 0.00 | 0.00 | 0.00 | 51 | 1012.7 |
| 20260508234545 | 69 | 0 | 0.0 | 0.0 | 0.00 | 0.00 | 0.00 | 50 | 1012.7 |
| 20260508233046 | 70 | 0 | 0.0 | 0.0 | 0.00 | 0.00 | 0.00 | 47 | 1012.8 |
| 20260508231553 | 70 | 0 | 0.9 | 3.5 | 0.00 | 0.00 | 0.00 | 46 | 1012.7 |
| 20260508230052 | 71 | 0 | 0.0 | 3.5 | 0.00 | 0.00 | 0.00 | 41 | 1012.5 |
| 20260508224553 | 71 | 0 | 0.9 | 3.5 | 0.00 | 0.00 | 0.00 | 47 | 1012.5 |
| 20260508223046 | 72 | 254 | 0.0 | 4.3 | 0.00 | 0.00 | 0.00 | 42 | 1012.5 |
| 20260508221545 | 72 | 255 | 1.7 | 5.2 | 0.00 | 0.00 | 0.00 | 41 | 1012.7 |
| 20260508220052 | 72 | 243 | 1.7 | 6.1 | 0.00 | 0.00 | 0.00 | 36 | 1012.9 |
| 20260508214548 | 72 | 126 | 1.7 | 5.2 | 0.00 | 0.00 | 0.00 | 39 | 1013.0 |
| 20260508213051 | 72 | 124 | 1.7 | 4.3 | 0.00 | 0.00 | 0.00 | 37 | 1012.9 |
| 20260508211548 | 72 | 143 | 1.7 | 5.2 | 0.00 | 0.00 | 0.00 | 38 | 1013.0 |
| 20260508210046 | 72 | 245 | 1.7 | 5.2 | 0.00 | 0.00 | 0.00 | 35 | 1013.1 |
| 20260508204547 | 72 | 252 | 0.9 | 6.1 | 0.00 | 0.00 | 0.00 | 34 | 1013.1 |